Change the Weather History Date:

Wednesday, November 6, 2013

  Actual Average Record
Temperature  
Mean Temperature 46 °F -  
Max Temperature 59 °F 50 °F 75 °F (2001)
Min Temperature 32 °F 32 °F 15 °F (1991)
Degree Days  
Heating Degree Days 20    
Moisture  
Dew Point 35 °F    
Average Humidity 77    
Maximum Humidity 94    
Minimum Humidity 50    
Precipitation  
Precipitation 0.26 in - - ()
Sea Level Pressure  
Sea Level Pressure 30.06 in    
Wind  
Wind Speed 15 mph (WNW)    
Max Wind Speed 23 mph    
Max Gust Speed 30 mph    
Visibility 10 miles    
Events Rain    
Averages and records for this station are not official NWS values.
T = Trace of Precipitation, MM = Missing Value Source: NWS Daily Summary

Daily Weather History Graph

Daily Weather History Graph

Search for Another Location

Airport or City:

Trip Planner

Search our weather history database for the weather conditions in past years. The results will help you decide how hot, cold, wet, or windy it might be!

Date:

Astronomy

Nov. 06, 2013 Rise Set
Actual Time 6:45 AM CST 4:57 PM CST
Civil Twilight 6:16 AM CST 5:26 PM CST
Nautical Twilight 5:43 AM CST 5:59 PM CST
Astronomical Twilight 5:11 AM CST 6:31 PM CST
Moon 10:01 AM CST (11/6) 8:01 PM CST (11/6)
Length of Visible Light 11h 10m
Length of Day
10h 12m
Waxing Crescent, 14% of the Moon is Illuminated
Nov 6
Waxing Crescent
Nov 9
First Quarter
Nov 17
Full
Nov 25
Last Quarter
Dec 2
New

Hourly Weather History & Observations

Time (CST) Temp. Windchill Dew Point Humidity Pressure Visibility Wind Dir Wind Speed Gust Speed Precip Events Conditions
12:35 AM 57.2 °F - 55.4 °F 94% 29.82 in 10.0 mi South 13.8 mph 19.6 mph N/A   Overcast
12:55 AM 57.2 °F - 55.4 °F 94% 29.82 in 9.0 mi South 13.8 mph - N/A   Overcast
1:15 AM 59.0 °F - 55.4 °F 88% 29.81 in 8.0 mi South 13.8 mph - N/A   Overcast
1:35 AM 59.0 °F - 55.4 °F 88% 29.81 in 6.0 mi South 13.8 mph - N/A   Light Drizzle
1:55 AM 59.0 °F - 57.2 °F 94% 29.80 in 9.0 mi South 12.7 mph 19.6 mph 0.01 in   Overcast
2:15 AM 59.0 °F - 57.2 °F 94% 29.80 in 6.0 mi South 12.7 mph - N/A   Light Drizzle
2:35 AM 59.0 °F - 57.2 °F 94% 29.80 in 7.0 mi South 11.5 mph - N/A Rain Rain
2:55 AM 59.0 °F - 57.2 °F 94% 29.80 in 5.0 mi South 12.7 mph 18.4 mph 0.06 in Rain Light Rain
3:15 AM 50.0 °F - 48.2 °F 94% 29.82 in 2.5 mi West 20.7 mph - N/A Rain Rain
3:35 AM 46.4 °F 39.8 °F 44.6 °F 93% 29.80 in 8.0 mi WNW 16.1 mph 23.0 mph N/A Rain Rain
3:55 AM 46.4 °F 40.1 °F 42.8 °F 87% 29.82 in 10.0 mi WNW 15.0 mph 21.9 mph 0.15 in   Light Drizzle
4:15 AM 44.6 °F 36.9 °F 42.8 °F 93% 29.87 in 7.0 mi WNW 18.4 mph 28.8 mph N/A Rain Rain
4:35 AM 42.8 °F 34.8 °F 41.0 °F 93% 29.87 in 9.0 mi WNW 17.3 mph - N/A   Light Drizzle
4:55 AM 41.0 °F 32.2 °F 39.2 °F 93% 29.86 in 10.0 mi NW 18.4 mph 25.3 mph 0.04 in   Light Drizzle
5:15 AM 41.0 °F 31.9 °F 39.2 °F 93% 29.90 in 10.0 mi WNW 19.6 mph 25.3 mph N/A   Overcast
5:35 AM 41.0 °F 31.9 °F 37.4 °F 87% 29.89 in 10.0 mi NW 19.6 mph - N/A   Light Drizzle
5:55 AM 39.2 °F 30.5 °F 37.4 °F 93% 29.90 in 10.0 mi WNW 16.1 mph 23.0 mph N/A   Overcast
6:15 AM 39.2 °F 29.8 °F 35.6 °F 87% 29.92 in 10.0 mi NW 18.4 mph 26.5 mph N/A   Overcast
6:35 AM 39.2 °F 29.6 °F 35.6 °F 87% 29.93 in 10.0 mi NW 19.6 mph 26.5 mph N/A   Overcast
6:55 AM 39.2 °F 30.5 °F 35.6 °F 87% 29.94 in 10.0 mi NW 16.1 mph 26.5 mph N/A   Overcast
7:15 AM 39.2 °F 29.8 °F 35.6 °F 87% 29.96 in 10.0 mi NW 18.4 mph 25.3 mph N/A   Overcast
7:35 AM 39.2 °F 29.3 °F 35.6 °F 87% 29.96 in 10.0 mi NW 20.7 mph - N/A   Light Drizzle
7:55 AM 39.2 °F 29.3 °F 35.6 °F 87% 29.99 in 10.0 mi NW 20.7 mph 27.6 mph N/A   Overcast
8:15 AM 39.2 °F 29.8 °F 35.6 °F 87% 29.99 in 10.0 mi NW 18.4 mph 25.3 mph N/A   Overcast
8:35 AM 39.2 °F 28.7 °F 35.6 °F 87% 29.99 in 10.0 mi NW 23.0 mph - N/A   Overcast
8:55 AM 39.2 °F 29.6 °F 35.6 °F 87% 30.02 in 10.0 mi NW 19.6 mph - N/A   Overcast
9:15 AM 39.2 °F 29.3 °F 35.6 °F 87% 30.03 in 10.0 mi NW 20.7 mph 26.5 mph N/A   Overcast
9:35 AM 39.2 °F 30.2 °F 33.8 °F 81% 30.05 in 10.0 mi NW 17.3 mph 26.5 mph N/A   Overcast
9:55 AM 39.2 °F 29.6 °F 33.8 °F 81% 30.06 in 10.0 mi NNW 19.6 mph 26.5 mph N/A   Overcast
10:15 AM 41.0 °F 32.5 °F 35.6 °F 81% 30.06 in 10.0 mi NW 17.3 mph 23.0 mph N/A   Overcast
10:35 AM 41.0 °F 31.1 °F 35.6 °F 81% 30.06 in 10.0 mi NW 23.0 mph 29.9 mph N/A   Overcast
10:55 AM 41.0 °F 32.2 °F 35.6 °F 81% 30.07 in 10.0 mi NW 18.4 mph 25.3 mph N/A   Overcast
11:15 AM 41.0 °F 31.9 °F 33.8 °F 76% 30.08 in 10.0 mi NW 19.6 mph 27.6 mph N/A   Overcast
11:35 AM 41.0 °F 31.6 °F 33.8 °F 76% 30.09 in 10.0 mi NW 20.7 mph 27.6 mph N/A   Overcast
11:55 AM 42.8 °F 34.0 °F 33.8 °F 70% 30.08 in 10.0 mi NNW 20.7 mph 26.5 mph N/A   Overcast
12:15 PM 44.6 °F 37.2 °F 35.6 °F 71% 30.08 in 10.0 mi NW 17.3 mph 24.2 mph N/A   Overcast
12:35 PM 46.4 °F 39.0 °F 33.8 °F 62% 30.08 in 10.0 mi NNW 19.6 mph - N/A   Mostly Cloudy
12:55 PM 46.4 °F 38.5 °F 33.8 °F 62% 30.08 in 10.0 mi NW 21.9 mph 27.6 mph N/A   Mostly Cloudy
1:15 PM 44.6 °F 36.1 °F 33.8 °F 66% 30.09 in 10.0 mi NW 21.9 mph - N/A   Overcast
1:35 PM 44.6 °F 36.6 °F 32.0 °F 61% 30.10 in 10.0 mi NW 19.6 mph 27.6 mph N/A   Mostly Cloudy
1:55 PM 44.6 °F 37.4 °F 33.8 °F 66% 30.11 in 10.0 mi NW 16.1 mph 24.2 mph N/A   Mostly Cloudy
2:15 PM 46.4 °F 39.2 °F 32.0 °F 57% 30.12 in 10.0 mi NW 18.4 mph 24.2 mph N/A   Scattered Clouds
2:35 PM 46.4 °F 40.1 °F 32.0 °F 57% 30.12 in 10.0 mi NW 15.0 mph 23.0 mph N/A   Mostly Cloudy
2:55 PM 46.4 °F 39.8 °F 30.2 °F 53% 30.13 in 10.0 mi NW 16.1 mph 24.2 mph N/A   Partly Cloudy
3:15 PM 46.4 °F 39.5 °F 28.4 °F 50% 30.15 in 10.0 mi WNW 17.3 mph 25.3 mph N/A   Clear
3:35 PM 46.4 °F 39.8 °F 28.4 °F 50% 30.16 in 10.0 mi WNW 16.1 mph 24.2 mph N/A   Clear
3:55 PM 44.6 °F 37.4 °F 28.4 °F 53% 30.16 in 10.0 mi NW 16.1 mph - N/A   Clear
4:15 PM 44.6 °F 38.4 °F 28.4 °F 53% 30.17 in 10.0 mi NW 12.7 mph 19.6 mph N/A   Clear
4:35 PM 42.8 °F 37.5 °F 28.4 °F 57% 30.18 in 10.0 mi NW 9.2 mph 16.1 mph N/A   Clear
4:55 PM 41.0 °F 35.2 °F 28.4 °F 61% 30.19 in 10.0 mi NW 9.2 mph - N/A   Clear
5:15 PM 39.2 °F 33.6 °F 28.4 °F 65% 30.20 in 10.0 mi WNW 8.1 mph - N/A   Clear
5:35 PM 39.2 °F 33.6 °F 28.4 °F 65% 30.21 in - WNW 8.1 mph - N/A   Clear
5:55 PM 37.4 °F 32.8 °F 28.4 °F 70% 30.21 in 10.0 mi WNW 5.8 mph - N/A   Clear
6:15 PM 37.4 °F 31.4 °F 28.4 °F 70% 30.22 in 10.0 mi WNW 8.1 mph - N/A   Clear
6:35 PM 35.6 °F 29.9 °F 26.6 °F 70% 30.22 in 10.0 mi WNW 6.9 mph - N/A   Clear
6:55 PM 35.6 °F 29.9 °F 26.6 °F 70% 30.22 in 10.0 mi WNW 6.9 mph - N/A   Clear
7:15 PM 35.6 °F 29.2 °F 26.6 °F 70% 30.23 in 10.0 mi WNW 8.1 mph - N/A   Clear
7:35 PM 35.6 °F 29.9 °F 26.6 °F 70% 30.22 in 10.0 mi WNW 6.9 mph - N/A   Clear
7:55 PM 33.8 °F 27.0 °F 26.6 °F 75% 30.23 in 10.0 mi WNW 8.1 mph - N/A   Clear
8:15 PM 35.6 °F 29.2 °F 26.6 °F 70% 30.24 in 10.0 mi WNW 8.1 mph - N/A   Clear
8:35 PM 35.6 °F 29.2 °F 24.8 °F 65% 30.24 in 10.0 mi WNW 8.1 mph - N/A   Clear
8:55 PM 33.8 °F 27.7 °F 24.8 °F 70% 30.24 in 10.0 mi West 6.9 mph - N/A   Clear
9:15 PM 32.0 °F 26.4 °F 24.8 °F 75% 30.25 in 10.0 mi West 5.8 mph - N/A   Clear
9:35 PM 32.0 °F 26.4 °F 24.8 °F 75% 30.26 in 10.0 mi West 5.8 mph - N/A   Clear
9:55 PM 32.0 °F 25.6 °F 24.8 °F 75% 30.26 in 10.0 mi West 6.9 mph - N/A   Clear
10:15 PM 32.0 °F 24.8 °F 26.6 °F 80% 30.27 in 10.0 mi West 8.1 mph - N/A   Clear
10:35 PM 32.0 °F 25.6 °F 24.8 °F 75% 30.26 in 10.0 mi West 6.9 mph - N/A   Clear
10:55 PM 32.0 °F 26.4 °F 24.8 °F 75% 30.26 in 10.0 mi West 5.8 mph - N/A   Clear
11:15 PM 32.0 °F 25.6 °F 24.8 °F 75% 30.27 in 10.0 mi West 6.9 mph - N/A   Clear
11:35 PM 32.0 °F 24.8 °F 26.6 °F 80% 30.27 in 10.0 mi West 8.1 mph - N/A   Clear
11:55 PM 32.0 °F 24.8 °F 26.6 °F 80% 30.28 in 10.0 mi West 8.1 mph - N/A   Clear